Regional Weather Roundup
Issued by NWS

Home | Current Version | Previous Version | Graphics & Text | Print | Product List | Glossary On
Versions: 1 2 3 4 5 6 7 8 9 10 11 12 13 14 15 16 17 18 19 20 21 22 23 24 25 26 27
000
ASUS45 KTFX 221710
RWRMT
MONTANA REGIONAL WEATHER ROUNDUP
NATIONAL WEATHER SERVICE GREAT FALLS MT
1100 AM MDT SUN APR 22 2018

NOTE: "FAIR" INDICATES FEW OR NO CLOUDS BELOW 12000 FEET WITH NO
SIGNIFICANT WEATHER AND/OR OBSTRUCTIONS TO VISIBILITY.

MTZ001>007-043-221800-
WEST OF THE DIVIDE

CITY           SKY/WX    TMP DP  RH WIND       PRES   REMARKS
KALISPELL      FAIR      49  21  33 VRB7      30.20F
MISSOULA       FAIR      49  25  39 N7        30.21F
BUTTE          FAIR      45  23  42 N6        30.16F
MULLAN PASS    FAIR      34  16  47 NW6       30.18S WCI  29
ANACONDA         N/A     45  21  39 N5        30.17F
DEER LODGE       N/A     45  21  39 NE6       30.20F
HAMILTON         N/A     46  25  42 MISG      30.20F
RONAN            N/A     48  19  32 SW8       30.23S
$$

MTZ008-052>055-221800-
SOUTHWEST MONTANA

CITY           SKY/WX    TMP DP  RH WIND       PRES   REMARKS
BOZEMAN        FAIR      50  29  44 S5        30.15F
DILLON         FAIR      46  27  47 CALM      30.13F
ENNIS          SUNNY     50  30  46 W6        30.16F
W YELLOWSTONE  FAIR      48  23  37 SW10G17   30.14F
THREE FORKS      N/A     52  23  32 N7        30.13F
$$

MTZ009-010-012-014-046-048-049-054-221800-
EAST SLOPES AND CENTRAL MONTANA

CITY           SKY/WX    TMP DP  RH WIND       PRES   REMARKS
CUT BANK       FAIR      49  14  24 W16G25    30.14S
GREAT FALLS    FAIR      52  19  27 NW8G20    30.15F
HELENA         FAIR      54  24  31 VRB6      30.16F
CHOTEAU          N/A     48  16  27 NE10      30.17S
WHITE SULPHUR    N/A     46  21  36 W8        30.13F
$$

MTZ011-013-016-021-045-047-050-051-221800-
NORTH CENTRAL MONTANA

CITY           SKY/WX    TMP DP  RH WIND       PRES   REMARKS
HAVRE            N/A    N/A N/A N/A MISG      30.14F
LEWISTOWN      CLOUDY    51  21  30 W14       30.13F
N BAR RANCH    FAIR      48  19  32 S12G17    30.17S
CHINOOK          N/A     54  23  30 SW9       30.14S
$$

MTZ017>020-022>027-061-062-221800-
NORTHEAST MONTANA

CITY           SKY/WX    TMP DP  RH WIND       PRES   REMARKS
GLASGOW        FAIR      56  28  34 W8        30.13F
GLENDIVE       FAIR      59  26  28 VRB3      30.16S
JORDAN           N/A     57  23  26 NW8       30.15S
MALTA          SUNNY     54  28  37 W14G22    30.12S
SIDNEY         FAIR      59  28  30 VRB3      30.14F
WOLF POINT     FAIR      59  32  36 SW13      30.14S
PLENTYWOOD       N/A     55  27  33 W8        30.11S
POPLAR           N/A     57  28  33 SW6       30.14S
$$

MTZ028>42-056>058-221800-
SOUTHCENTRAL AND SOUTHEAST MONTANA

CITY           SKY/WX    TMP DP  RH WIND       PRES   REMARKS
BAKER          FAIR      57  29  34 NW8       30.16S
BILLINGS       FAIR      56  23  27 SE10      30.14F
LIVINGSTON     FAIR      52  30  43 VRB5      30.12F
MILES CITY     FAIR      56  25  30 CALM      30.16F
BIG TIMBER     SUNNY     52  23  32 SE8G15    30.14F
FORSYTH          N/A     57  19  23 E3        30.16F
LAUREL           N/A     55  23  28 E14       30.14F
$$

REGIONAL REPORTS...DAKOTAS

CITY           SKY/WX    TMP DP  RH WIND       PRES   REMARKS
WILLISTON      PTSUNNY   60  31  33 N8        30.14S
MINOT          FAIR      60  31  33 NW9       30.12R
DICKINSON      FAIR      60  23  24 CALM      30.12S
BEACH          FAIR      57  21  24 W8        30.18S
CROSBY         FAIR      57  32  38 W16       30.11S
TIOGA          FAIR      54  30  40 W7        30.15R
BISMARCK       FAIR      59  38  45 SW13G23   30.15F
GRAND FORKS    FAIR      54  41  61 SW21      30.20F
FARGO          FAIR      57  39  51 S14       30.24S
BUFFALO SD       N/A     59  30  33 NE5       30.07F
RAPID CITY     FAIR      57  40  52 E7        30.16S
$$

REGIONAL REPORTS...WYOMING/IDAHO/WASHINGTON

CITY           SKY/WX    TMP DP  RH WIND       PRES   REMARKS
GILLETTE       FAIR      53  39  59 CALM      30.16S
SHERIDAN       FAIR      56  27  32 E8        30.14F
BUFFALO WY     FAIR      53  26  35 E7        30.17F
CODY           FAIR      54  27  35 NE6       30.14F
YELLOWSTONE LA   N/A     40  24  53 VRB3      30.22F
IDAHO FALLS    FAIR      59  32  36 S8        30.13F
SALMON         FAIR      49  33  54 VRB3      30.13F
BOISE          FAIR      52  30  43 N7        30.14F
SPOKANE        PTSUNNY   45  26  47 CALM      30.26F
$$

REGIONAL REPORTS...ALBERTA

CITY           SKY/WX    TMP DP  RH WIND       PRES   REMARKS
CALGARY        MOSUNNY   48   9  20 N17       30.13R
EDMONTON       MOSUNNY   43  25  49 NW20G30   30.04R
FORT MCMURRAY  CLOUDY    43  37  81 NW10G18   29.86R
HIGH LEVEL     PTSUNNY   34  28  80 NW7       30.07R WCI  28
LETHBRIDGE     PTSUNNY   52  21  30 NW12G23   30.13R
LLOYDMINSTER   CLOUDY    41  34  75 W23G33    29.93R
MEDICINE HAT   MOSUNNY   52  21  30 NE6       30.13S
MILK RIVER       N/A     50  19  29 NW15        N/A
PEACE RIVER    MOSUNNY   43  25  49 NW12G18   30.11R
PINCHER CREEK  MOSUNNY   46  21  36 W15G22    30.13S
WATERTON GATE    N/A     45  18  33 SW16G23     N/A
$$

REGIONAL REPORTS...SASKATCHEWAN

CITY           SKY/WX    TMP DP  RH WIND       PRES   REMARKS
CORONACH         N/A     55  25  30 W7          N/A
CYPRESS HILLS    N/A     45  19  36 NE3         N/A
ESTEVAN        MOSUNNY   59  30  33 W13G20    30.09S
MOOSE JAW        N/A     55  25  30 W20G25      N/A
PRINCE ALBERT  MOSUNNY   46  34  61 W23G40    29.81R
REGINA         MOSUNNY   54  34  47 W20G28    30.06R
ROCKGLEN         N/A     54  25  32 W9          N/A
SASKATOON      MOSUNNY   50  30  46 W26G36    29.94S
SWIFT CURRENT  SUNNY     50  23  34 W13G20    30.10R
VAL MARIE        N/A     52  23  32 S2          N/A
$$




USA.gov is the U.S. government's official web portal to all federal, state and local government web resources and services.